Location: Harwich
(41.7160°N, 69.9939°W)
Time: 19:56:50
(UTC+02:00)

AO-7 - Pass Details

Date: 22 September 2024
Orbit: 1440 x 1458 km, 102.0° (Epoch: 11 October)

Event Time Altitude Azimuth Distance (km) Brightness Sun altitude
Rises 10:30:14 0° 34° (NE) 4,570 ? -22.3°
Reaches altitude 10° 10:34:49 10° 57° (ENE) 3,583 ? -21.5°
Maximum altitude 10:39:11 15° 89° (E) 3,194 ? -20.7°
Drops below altitude 10° 10:43:32 10° 121° (ESE) 3,566 ? -20.0°
Sets 10:47:59 0° 143° (SE) 4,535 ? -19.2°
